#timestamp,LO_Frequency,Hit 
1502794815.3,286046996.3,N
1502794835.2,286046995.2,N
1502794855.9,286046994.4,N
1502794875.7,286046992.6,N
1502794895.5,286046991.7,N
1502794915.4,286046988.7,N
1502794935.2,286046990.1,N
1502794955.0,286046989.1,N
1502794955.9,286046989.1,N
1502794975.8,286046989.3,N
1502794995.6,286046989.5,N
1502795015.4,286046989.7,N
1502795035.3,286046992.1,N
1502795055.1,286046990.3,N
1502795056.0,286046990.3,N
1502795075.8,286046991.8,N
1502795095.7,286046995.1,N
1502795115.5,286046995.9,N
1502795135.3,286046993.0,N
1502795155.2,286046990.4,P
1502795175.9,286047001.9,N
1502795195.7,286047005.3,N
1502795215.6,286047007.9,N
1502795235.4,286047012.6,N
1502795255.2,286047012.8,N
1502795275.1,286047015.1,N
1502795276.0,286047015.1,N
1502795295.8,286047016.8,N
1502795315.6,286047017.9,N
1502795335.5,286047019.4,N
1502795355.3,286047017.9,N
1502795375.1,286047015.9,N
1502795395.8,286047018.1,N
1502795415.7,286047018.0,N
1502795435.5,286047019.3,N
1502795455.3,286047022.5,N
1502795475.2,286047022.8,N
1502795495.9,286047024.8,N
1502795515.7,286047028.4,P
1502795535.6,286047012.8,N
1502795555.4,286047013.3,N
1502795575.2,286047010.6,N
1502795595.1,286047011.2,N
1502795596.0,286047011.2,N
1502795615.8,286047014.0,N
1502795635.6,286047010.0,N
1502795655.5,286047008.3,N
1502795675.3,286047006.7,N
1502795695.1,286047004.6,N
1502795715.9,286047004.9,N
1502795735.7,286047006.3,N
1502795755.5,286047008.1,N
1502795775.3,286047009.1,N
1502795795.2,286047006.6,N
1502795815.0,286047005.9,N
1502795815.9,286047005.9,N
1502795835.7,286047005.4,N
1502795855.6,286047003.8,N
1502795875.4,286047004.2,N
